BVX598 CYUL-KATW

Flight info

Callsign BVX598
Flight time 1h 49m
Altitude 36000
Route KESKA DCT SAVEX DCT KANUR DCT TUKIR DCT KAPUX DCT TVC
Aircraft B738/M-SDE2E3FGHIRWXY/LB1

Departure

Time 2026-05-06 18:08
Airport Montreal / Pierre Elliott Trudeau International Airport (CYUL)

Arrival

Time 2026-05-06 19:58
Airport Appleton International Airport (KATW)
Time Latitude Longitude Altitude Speed Heading
2026-05-06 16:52 45.45569 -73.75636 104 ft 0 kts 167°
2026-05-06 17:48 45.45570 -73.75636 104 ft 2 kts 167°
2026-05-06 17:48 45.45591 -73.75643 103 ft 4 kts 170°
2026-05-06 17:48 45.45614 -73.75639 102 ft 4 kts 219°
2026-05-06 17:48 45.45629 -73.75610 104 ft 3 kts 256°
2026-05-06 17:49 45.45630 -73.75606 104 ft 1 kts 257°
2026-05-06 17:55 45.45629 -73.75608 104 ft 1 kts 257°
2026-05-06 17:55 45.45623 -73.75653 103 ft 6 kts 257°
2026-05-06 17:55 45.45616 -73.75710 104 ft 6 kts 269°
2026-05-06 17:55 45.45627 -73.75763 103 ft 6 kts 300°
2026-05-06 17:56 45.45649 -73.75809 104 ft 6 kts 305°
2026-05-06 17:56 45.45672 -73.75853 102 ft 6 kts 308°
2026-05-06 17:56 45.45704 -73.75910 104 ft 9 kts 309°
2026-05-06 17:56 45.45751 -73.75990 104 ft 12 kts 311°
2026-05-06 17:57 45.45829 -73.76037 103 ft 12 kts 349°
2026-05-06 17:57 45.45912 -73.76057 103 ft 12 kts 350°
2026-05-06 17:57 45.45995 -73.76065 104 ft 12 kts 358°
2026-05-06 17:57 45.46075 -73.76063 103 ft 11 kts
2026-05-06 17:58 45.46122 -73.75986 101 ft 11 kts 83°
2026-05-06 17:58 45.46129 -73.75876 101 ft 11 kts 86°
2026-05-06 17:58 45.46137 -73.75770 101 ft 11 kts 69°
2026-05-06 17:58 45.46200 -73.75731 102 ft 10 kts 359°
2026-05-06 17:59 45.46270 -73.75726 103 ft 10 kts 20°
2026-05-06 17:59 45.46298 -73.75643 103 ft 10 kts 87°
2026-05-06 17:59 45.46302 -73.75534 103 ft 12 kts 87°
2026-05-06 17:59 45.46305 -73.75416 104 ft 12 kts 89°
2026-05-06 18:00 45.46307 -73.75290 104 ft 13 kts 89°
2026-05-06 18:00 45.46310 -73.75164 104 ft 13 kts 87°
2026-05-06 18:00 45.46314 -73.75041 103 ft 12 kts 88°
2026-05-06 18:00 45.46318 -73.74919 105 ft 13 kts 88°
2026-05-06 18:01 45.46322 -73.74748 104 ft 20 kts 89°
2026-05-06 18:01 45.46328 -73.74543 103 ft 21 kts 87°
2026-05-06 18:01 45.46336 -73.74331 104 ft 21 kts 87°
2026-05-06 18:01 45.46344 -73.74124 105 ft 21 kts 87°
2026-05-06 18:02 45.46350 -73.73917 106 ft 21 kts 87°
2026-05-06 18:02 45.46390 -73.73728 105 ft 20 kts 46°
2026-05-06 18:02 45.46493 -73.73597 107 ft 20 kts 42°
2026-05-06 18:02 45.46593 -73.73468 110 ft 19 kts 42°
2026-05-06 18:03 45.46687 -73.73341 111 ft 18 kts 43°
2026-05-06 18:03 45.46779 -73.73219 111 ft 18 kts 43°
2026-05-06 18:03 45.46868 -73.73102 113 ft 17 kts 43°
2026-05-06 18:03 45.46954 -73.72989 113 ft 17 kts 41°
2026-05-06 18:04 45.47037 -73.72881 114 ft 16 kts 42°
2026-05-06 18:04 45.47117 -73.72777 116 ft 15 kts 42°
2026-05-06 18:04 45.47200 -73.72669 115 ft 17 kts 43°
2026-05-06 18:04 45.47295 -73.72545 116 ft 20 kts 43°
2026-05-06 18:05 45.47401 -73.72404 117 ft 22 kts 43°
2026-05-06 18:05 45.47517 -73.72251 118 ft 23 kts 42°
2026-05-06 18:05 45.47644 -73.72092 118 ft 25 kts 41°
2026-05-06 18:05 45.47762 -73.71929 120 ft 19 kts 43°
2026-05-06 18:06 45.47810 -73.71833 120 ft 8 kts 97°
2026-05-06 18:06 45.47786 -73.71762 119 ft 8 kts 120°
2026-05-06 18:06 45.47757 -73.71698 121 ft 8 kts 126°
2026-05-06 18:06 45.47719 -73.71646 123 ft 7 kts 146°
2026-05-06 18:07 45.47671 -73.71652 121 ft 7 kts 205°
2026-05-06 18:07 45.47632 -73.71696 121 ft 7 kts 220°
2026-05-06 18:07 45.47503 -73.71866 122 ft 58 kts 222°
2026-05-06 18:07 45.47035 -73.72480 117 ft 122 kts 223°
2026-05-06 18:08 45.46284 -73.73460 215 ft 164 kts 222°
2026-05-06 18:08 45.45398 -73.74608 714 ft 177 kts 222°
2026-05-06 18:08 45.44508 -73.75776 1693 ft 167 kts 223°
2026-05-06 18:08 45.43665 -73.76923 2423 ft 175 kts 224°
2026-05-06 18:09 45.42685 -73.78204 2698 ft 205 kts 223°
2026-05-06 18:09 45.41570 -73.79638 2898 ft 228 kts 224°
2026-05-06 18:09 45.40486 -73.81364 3204 ft 242 kts 245°
2026-05-06 18:09 45.40264 -73.83753 3484 ft 253 kts 285°
2026-05-06 18:10 45.41177 -73.85865 4201 ft 254 kts 320°
2026-05-06 18:10 45.42540 -73.87478 4774 ft 251 kts 318°
2026-05-06 18:10 45.43818 -73.89119 5006 ft 250 kts 316°
2026-05-06 18:10 45.45100 -73.90844 4999 ft 256 kts 315°
2026-05-06 18:11 45.46373 -73.92614 4995 ft 256 kts 315°
2026-05-06 18:11 45.47207 -73.93795 4985 ft 255 kts 314°
2026-05-06 18:11 45.48479 -73.95624 4644 ft 261 kts 314°
2026-05-06 18:11 45.49688 -73.97380 5087 ft 239 kts 314°
2026-05-06 18:12 45.50874 -73.99116 5503 ft 252 kts 313°
2026-05-06 18:12 45.52118 -74.00946 6140 ft 261 kts 311°
2026-05-06 18:12 45.53393 -74.02827 6847 ft 266 kts 310°
2026-05-06 18:12 45.54683 -74.04731 7628 ft 268 kts 309°
2026-05-06 18:13 45.55982 -74.06655 8426 ft 271 kts 308°
2026-05-06 18:13 45.57296 -74.08603 9231 ft 273 kts 307°
2026-05-06 18:13 45.58622 -74.10573 9984 ft 277 kts 306°
2026-05-06 18:13 45.59914 -74.12655 10398 ft 286 kts 295°
2026-05-06 18:14 45.60555 -74.15342 10566 ft 293 kts 270°
2026-05-06 18:14 45.60308 -74.18282 10750 ft 308 kts 250°
2026-05-06 18:14 45.59463 -74.21190 10915 ft 327 kts 244°
2026-05-06 18:14 45.58470 -74.24216 11081 ft 345 kts 244°
2026-05-06 18:15 45.57429 -74.27355 11462 ft 354 kts 244°
2026-05-06 18:15 45.56393 -74.30512 12034 ft 356 kts 244°
2026-05-06 18:15 45.55339 -74.33769 12683 ft 358 kts 244°
2026-05-06 18:15 45.54315 -74.36966 13275 ft 361 kts 245°
2026-05-06 18:16 45.53256 -74.40280 13859 ft 364 kts 245°
2026-05-06 18:16 45.52204 -74.43571 14414 ft 367 kts 245°
2026-05-06 18:16 45.51250 -74.46952 15018 ft 370 kts 251°
2026-05-06 18:16 45.50676 -74.50490 15634 ft 373 kts 257°
2026-05-06 18:17 45.50191 -74.54186 16236 ft 376 kts 257°
2026-05-06 18:17 45.49699 -74.57808 16794 ft 379 kts 256°
2026-05-06 18:17 45.49189 -74.61500 17364 ft 381 kts 256°
2026-05-06 18:17 45.48670 -74.65215 17999 ft 383 kts 256°
2026-05-06 18:18 45.48145 -74.68951 18535 ft 387 kts 256°
2026-05-06 18:18 45.47613 -74.72724 18977 ft 390 kts 256°
2026-05-06 18:18 45.47076 -74.76523 19446 ft 392 kts 256°
2026-05-06 18:18 45.46535 -74.80345 19929 ft 395 kts 256°
2026-05-06 18:19 45.45990 -74.84188 20399 ft 397 kts 256°
2026-05-06 18:19 45.45440 -74.88051 20843 ft 400 kts 256°
2026-05-06 18:19 45.44885 -74.91945 21273 ft 402 kts 256°
2026-05-06 18:19 45.44326 -74.95857 21696 ft 405 kts 256°
2026-05-06 18:20 45.43762 -74.99793 22112 ft 407 kts 256°
2026-05-06 18:20 45.43193 -75.03751 22526 ft 410 kts 256°
2026-05-06 18:20 45.42617 -75.07739 22926 ft 412 kts 256°
2026-05-06 18:20 45.42037 -75.11743 23334 ft 414 kts 256°
2026-05-06 18:21 45.41453 -75.15759 23721 ft 415 kts 256°
2026-05-06 18:21 45.40867 -75.19787 24069 ft 416 kts 256°
2026-05-06 18:21 45.40277 -75.23833 24384 ft 418 kts 256°
2026-05-06 18:21 45.39684 -75.27890 24717 ft 420 kts 256°
2026-05-06 18:22 45.39086 -75.31968 25039 ft 422 kts 256°
2026-05-06 18:22 45.38485 -75.36058 25359 ft 423 kts 256°
2026-05-06 18:22 45.37882 -75.40154 25661 ft 424 kts 256°
2026-05-06 18:22 45.37284 -75.44207 25965 ft 424 kts 256°
2026-05-06 18:23 45.36677 -75.48308 26336 ft 423 kts 256°
2026-05-06 18:23 45.36071 -75.52391 26753 ft 421 kts 256°
2026-05-06 18:23 45.35459 -75.56502 27226 ft 418 kts 256°
2026-05-06 18:23 45.34867 -75.60472 27680 ft 415 kts 256°
2026-05-06 18:24 45.34267 -75.64484 28089 ft 414 kts 256°
2026-05-06 18:24 45.33667 -75.68484 28466 ft 413 kts 256°
2026-05-06 18:24 45.33068 -75.72467 28876 ft 412 kts 256°
2026-05-06 18:24 45.32468 -75.76443 29323 ft 411 kts 256°
2026-05-06 18:25 45.31870 -75.80401 29799 ft 409 kts 256°
2026-05-06 18:25 45.31274 -75.84336 30211 ft 406 kts 256°
2026-05-06 18:25 45.30678 -75.88259 30519 ft 406 kts 256°
2026-05-06 18:25 45.30082 -75.92175 30784 ft 407 kts 256°
2026-05-06 18:26 45.29482 -75.96103 31051 ft 406 kts 256°
2026-05-06 18:26 45.28884 -76.00013 31418 ft 405 kts 256°
2026-05-06 18:26 45.28286 -76.03915 31750 ft 403 kts 256°
2026-05-06 18:26 45.27688 -76.07804 32030 ft 404 kts 256°
2026-05-06 18:27 45.27089 -76.11695 32303 ft 404 kts 256°
2026-05-06 18:27 45.26489 -76.15586 32629 ft 403 kts 256°
2026-05-06 18:27 45.25889 -76.19460 32948 ft 402 kts 256°
2026-05-06 18:27 45.25312 -76.23337 33231 ft 402 kts 258°
2026-05-06 18:28 45.25023 -76.27294 33487 ft 405 kts 264°
2026-05-06 18:28 45.24905 -76.31279 33779 ft 404 kts 264°
2026-05-06 18:28 45.24783 -76.35259 34025 ft 404 kts 264°
2026-05-06 18:28 45.24657 -76.39239 34257 ft 404 kts 264°
2026-05-06 18:29 45.24525 -76.43212 34488 ft 403 kts 264°
2026-05-06 18:29 45.24389 -76.47180 34732 ft 402 kts 264°
2026-05-06 18:29 45.24250 -76.51141 34939 ft 402 kts 264°
2026-05-06 18:29 45.24108 -76.55101 35164 ft 402 kts 264°
2026-05-06 18:30 45.23963 -76.59058 35383 ft 402 kts 264°
2026-05-06 18:30 45.23818 -76.63016 35583 ft 402 kts 264°
2026-05-06 18:30 45.23670 -76.66973 35773 ft 402 kts 264°
2026-05-06 18:30 45.23521 -76.70937 35846 ft 404 kts 264°
2026-05-06 18:31 45.23218 -76.78906 35860 ft 403 kts 264°
2026-05-06 18:31 45.22912 -76.86828 35864 ft 401 kts 264°
2026-05-06 18:32 45.22602 -76.94700 35860 ft 399 kts 264°
2026-05-06 18:32 45.22287 -77.02546 35858 ft 398 kts 264°
2026-05-06 18:33 45.21968 -77.10375 35862 ft 397 kts 264°
2026-05-06 18:33 45.21643 -77.18198 35860 ft 398 kts 264°
2026-05-06 18:34 45.21311 -77.26046 35870 ft 399 kts 263°
2026-05-06 18:34 45.20975 -77.33902 35861 ft 399 kts 263°
2026-05-06 18:35 45.20633 -77.41762 35870 ft 400 kts 263°
2026-05-06 18:35 45.20287 -77.49583 35866 ft 400 kts 263°
2026-05-06 18:36 45.19930 -77.57515 35862 ft 401 kts 263°
2026-05-06 18:36 45.19573 -77.65350 35873 ft 401 kts 263°
2026-05-06 18:37 45.19208 -77.73233 35867 ft 401 kts 263°
2026-05-06 18:37 45.18837 -77.81123 35869 ft 401 kts 263°
2026-05-06 18:38 45.18461 -77.89002 35868 ft 401 kts 263°
2026-05-06 18:38 45.18080 -77.96882 35873 ft 401 kts 263°
2026-05-06 18:39 45.17693 -78.04771 35867 ft 401 kts 263°
2026-05-06 18:40 45.17102 -78.16589 35878 ft 401 kts 263°
2026-05-06 18:40 45.16702 -78.24462 35868 ft 400 kts 263°
2026-05-06 18:41 45.16297 -78.32326 35876 ft 400 kts 263°
2026-05-06 18:41 45.15887 -78.40183 35907 ft 400 kts 263°
2026-05-06 18:42 45.15471 -78.48048 35890 ft 400 kts 263°
2026-05-06 18:42 45.15049 -78.55916 35889 ft 400 kts 263°
2026-05-06 18:43 45.14622 -78.63776 35885 ft 400 kts 263°
2026-05-06 18:43 45.14190 -78.71630 35887 ft 400 kts 263°
2026-05-06 18:44 45.13753 -78.79482 35890 ft 400 kts 262°
2026-05-06 18:44 45.13310 -78.87343 35895 ft 400 kts 262°
2026-05-06 18:45 45.12865 -78.95146 35896 ft 400 kts 262°
2026-05-06 18:45 45.12411 -79.02997 35885 ft 400 kts 262°
2026-05-06 18:46 45.11950 -79.10890 35902 ft 400 kts 262°
2026-05-06 18:46 45.11486 -79.18726 35889 ft 400 kts 262°
2026-05-06 18:47 45.11020 -79.26514 35921 ft 400 kts 262°
2026-05-06 18:47 45.10543 -79.34401 35910 ft 399 kts 262°
2026-05-06 18:48 45.10067 -79.42180 35918 ft 399 kts 262°
2026-05-06 18:48 45.09579 -79.50060 35920 ft 399 kts 262°
2026-05-06 18:49 45.09093 -79.57823 35923 ft 399 kts 262°
2026-05-06 18:49 45.08599 -79.65636 35938 ft 399 kts 262°
2026-05-06 18:50 45.08100 -79.73449 35938 ft 398 kts 262°
2026-05-06 18:50 45.07669 -79.81264 35948 ft 398 kts 263°
2026-05-06 18:51 45.07323 -79.89085 35950 ft 398 kts 263°
2026-05-06 18:51 45.06973 -79.96905 35954 ft 398 kts 263°
2026-05-06 18:52 45.06609 -80.04723 35963 ft 399 kts 263°
2026-05-06 18:52 45.06234 -80.12533 35956 ft 398 kts 263°
2026-05-06 18:53 45.05852 -80.20328 35960 ft 397 kts 263°
2026-05-06 18:53 45.05466 -80.28107 35958 ft 396 kts 263°
2026-05-06 18:54 45.05075 -80.35881 35962 ft 396 kts 263°
2026-05-06 18:54 45.04678 -80.43650 35970 ft 396 kts 263°
2026-05-06 18:55 45.04276 -80.51419 35960 ft 396 kts 263°
2026-05-06 18:55 45.03869 -80.59191 35967 ft 396 kts 263°
2026-05-06 18:56 45.03457 -80.66955 35955 ft 396 kts 263°
2026-05-06 18:56 45.03039 -80.74721 35957 ft 396 kts 263°
2026-05-06 18:57 45.02619 -80.82435 35961 ft 397 kts 263°
2026-05-06 18:57 45.02190 -80.90223 35949 ft 397 kts 263°
2026-05-06 18:58 45.01826 -80.96742 35960 ft 397 kts 263°
2026-05-06 18:58 45.01388 -81.04518 35963 ft 397 kts 263°
2026-05-06 18:59 45.00944 -81.12291 35965 ft 397 kts 263°
2026-05-06 18:59 45.00495 -81.20067 35986 ft 397 kts 263°
2026-05-06 19:00 45.00040 -81.27848 35976 ft 397 kts 263°
2026-05-06 19:00 44.99580 -81.35620 35977 ft 397 kts 262°
2026-05-06 19:01 44.99116 -81.43386 35977 ft 397 kts 262°
2026-05-06 19:01 44.98646 -81.51150 35978 ft 396 kts 262°
2026-05-06 19:02 44.98171 -81.58905 36007 ft 396 kts 262°
2026-05-06 19:02 44.97690 -81.66672 35989 ft 397 kts 262°
2026-05-06 19:03 44.97207 -81.74388 35982 ft 397 kts 262°
2026-05-06 19:03 44.96716 -81.82162 35985 ft 397 kts 262°
2026-05-06 19:04 44.96218 -81.89934 35979 ft 397 kts 262°
2026-05-06 19:04 44.95716 -81.97703 35979 ft 397 kts 262°
2026-05-06 19:05 44.95209 -82.05471 35981 ft 397 kts 262°
2026-05-06 19:05 44.94696 -82.13235 35985 ft 397 kts 262°
2026-05-06 19:06 44.94178 -82.21002 35985 ft 397 kts 262°
2026-05-06 19:06 44.93655 -82.28766 35981 ft 397 kts 262°
2026-05-06 19:07 44.93127 -82.36520 36001 ft 397 kts 262°
2026-05-06 19:07 44.92593 -82.44276 35986 ft 397 kts 262°
2026-05-06 19:08 44.92055 -82.52016 35985 ft 396 kts 262°
2026-05-06 19:08 44.91513 -82.59748 35981 ft 396 kts 262°
2026-05-06 19:09 44.90965 -82.67477 35982 ft 396 kts 262°
2026-05-06 19:09 44.90413 -82.75196 35993 ft 396 kts 262°
2026-05-06 19:10 44.89859 -82.82865 35984 ft 396 kts 262°
2026-05-06 19:10 44.89296 -82.90582 35984 ft 396 kts 262°
2026-05-06 19:11 44.88728 -82.98304 35982 ft 396 kts 262°
2026-05-06 19:11 44.88155 -83.06018 35980 ft 396 kts 262°
2026-05-06 19:12 44.87577 -83.13735 35980 ft 396 kts 262°
2026-05-06 19:12 44.86992 -83.21465 35981 ft 397 kts 262°
2026-05-06 19:13 44.86399 -83.29222 35981 ft 398 kts 262°
2026-05-06 19:13 44.85801 -83.36990 35983 ft 399 kts 262°
2026-05-06 19:14 44.85196 -83.44772 35983 ft 400 kts 262°
2026-05-06 19:14 44.84585 -83.52557 35966 ft 400 kts 262°
2026-05-06 19:15 44.83968 -83.60355 35980 ft 401 kts 262°
2026-05-06 19:15 44.83345 -83.68156 35968 ft 400 kts 262°
2026-05-06 19:16 44.82718 -83.75947 35964 ft 400 kts 261°
2026-05-06 19:16 44.82087 -83.83720 35959 ft 399 kts 261°
2026-05-06 19:17 44.81457 -83.91413 35984 ft 398 kts 261°
2026-05-06 19:17 44.80818 -83.99148 35972 ft 397 kts 261°
2026-05-06 19:18 44.80174 -84.06873 35969 ft 397 kts 261°
2026-05-06 19:18 44.79525 -84.14599 35976 ft 397 kts 261°
2026-05-06 19:19 44.78873 -84.22308 35977 ft 397 kts 261°
2026-05-06 19:19 44.78214 -84.30020 35993 ft 397 kts 261°
2026-05-06 19:20 44.77550 -84.37736 35970 ft 397 kts 261°
2026-05-06 19:20 44.76880 -84.45458 35958 ft 397 kts 261°
2026-05-06 19:21 44.76205 -84.53178 35954 ft 397 kts 261°
2026-05-06 19:21 44.75525 -84.60889 35947 ft 397 kts 261°
2026-05-06 19:22 44.74839 -84.68605 35965 ft 398 kts 261°
2026-05-06 19:22 44.74147 -84.76333 35953 ft 398 kts 261°
2026-05-06 19:23 44.73449 -84.84073 35947 ft 399 kts 261°
2026-05-06 19:23 44.72745 -84.91813 35956 ft 399 kts 261°
2026-05-06 19:24 44.72040 -84.99509 35960 ft 399 kts 261°
2026-05-06 19:24 44.71325 -85.07256 35982 ft 400 kts 261°
2026-05-06 19:25 44.70603 -85.15015 35993 ft 401 kts 261°
2026-05-06 19:25 44.69875 -85.22787 35997 ft 401 kts 261°
2026-05-06 19:26 44.69141 -85.30565 35990 ft 402 kts 261°
2026-05-06 19:26 44.68401 -85.38340 35988 ft 402 kts 261°
2026-05-06 19:27 44.67657 -85.46122 35982 ft 402 kts 261°
2026-05-06 19:27 44.66904 -85.53916 35984 ft 403 kts 260°
2026-05-06 19:28 44.65731 -85.61602 35975 ft 403 kts 256°
2026-05-06 19:28 44.65072 -85.65415 35838 ft 399 kts 256°
2026-05-06 19:28 44.64416 -85.69186 35300 ft 397 kts 256°
2026-05-06 19:28 44.63765 -85.72941 34757 ft 393 kts 256°
2026-05-06 19:29 44.63123 -85.76651 34221 ft 390 kts 256°
2026-05-06 19:29 44.62489 -85.80329 33627 ft 386 kts 256°
2026-05-06 19:29 44.61860 -85.83977 33000 ft 382 kts 256°
2026-05-06 19:29 44.61240 -85.87582 32389 ft 378 kts 256°
2026-05-06 19:30 44.60624 -85.91154 31789 ft 374 kts 256°
2026-05-06 19:30 44.60014 -85.94684 31200 ft 370 kts 256°
2026-05-06 19:30 44.59411 -85.98169 30627 ft 366 kts 256°
2026-05-06 19:30 44.58811 -86.01633 30054 ft 366 kts 256°
2026-05-06 19:31 44.58207 -86.05112 29375 ft 369 kts 256°
2026-05-06 19:31 44.57594 -86.08632 28708 ft 375 kts 256°
2026-05-06 19:31 44.56334 -86.15848 27552 ft 386 kts 256°
2026-05-06 19:32 44.55691 -86.19520 27333 ft 392 kts 256°
2026-05-06 19:32 44.55034 -86.23264 27043 ft 397 kts 256°
2026-05-06 19:32 44.54376 -86.27011 26787 ft 394 kts 256°
2026-05-06 19:32 44.53720 -86.30737 26526 ft 393 kts 256°
2026-05-06 19:33 44.53063 -86.34458 26114 ft 396 kts 256°
2026-05-06 19:33 44.52399 -86.38213 25667 ft 399 kts 256°
2026-05-06 19:33 44.51728 -86.41996 25174 ft 402 kts 256°
2026-05-06 19:33 44.51068 -86.45715 24599 ft 393 kts 256°
2026-05-06 19:34 44.50416 -86.49379 24029 ft 380 kts 256°
2026-05-06 19:34 44.49789 -86.52897 23431 ft 364 kts 256°
2026-05-06 19:34 44.49176 -86.56327 22770 ft 363 kts 256°
2026-05-06 19:34 44.48565 -86.59741 22104 ft 360 kts 256°
2026-05-06 19:35 44.47957 -86.63130 21476 ft 359 kts 256°
2026-05-06 19:35 44.47353 -86.66492 20840 ft 352 kts 256°
2026-05-06 19:35 44.46763 -86.69775 20212 ft 342 kts 256°
2026-05-06 19:35 44.46189 -86.72956 19599 ft 332 kts 255°
2026-05-06 19:36 44.45630 -86.76049 19007 ft 324 kts 255°
2026-05-06 19:36 44.45083 -86.79073 18417 ft 318 kts 255°
2026-05-06 19:36 44.44542 -86.82059 17767 ft 315 kts 255°
2026-05-06 19:36 44.44006 -86.85014 17119 ft 313 kts 255°
2026-05-06 19:37 44.43465 -86.87985 16492 ft 318 kts 255°
2026-05-06 19:37 44.42915 -86.91006 15870 ft 322 kts 256°
2026-05-06 19:37 44.42358 -86.94060 15258 ft 324 kts 256°
2026-05-06 19:37 44.41988 -86.96086 14855 ft 326 kts 256°
2026-05-06 19:38 44.41244 -87.00149 14049 ft 317 kts 256°
2026-05-06 19:38 44.40703 -87.03099 13463 ft 309 kts 256°
2026-05-06 19:38 44.40176 -87.05972 12850 ft 302 kts 256°
2026-05-06 19:38 44.39656 -87.08796 12255 ft 298 kts 256°
2026-05-06 19:39 44.39142 -87.11586 11700 ft 295 kts 256°
2026-05-06 19:39 44.38632 -87.14355 11130 ft 293 kts 256°
2026-05-06 19:39 44.38125 -87.17101 10566 ft 291 kts 256°
2026-05-06 19:39 44.37621 -87.19825 10016 ft 287 kts 256°
2026-05-06 19:40 44.37126 -87.22493 9521 ft 280 kts 257°
2026-05-06 19:40 44.36644 -87.25090 9020 ft 273 kts 257°
2026-05-06 19:40 44.36171 -87.27636 8539 ft 267 kts 257°
2026-05-06 19:40 44.35711 -87.30113 8133 ft 260 kts 257°
2026-05-06 19:41 44.35262 -87.32522 7740 ft 254 kts 257°
2026-05-06 19:41 44.34820 -87.34894 7329 ft 252 kts 256°
2026-05-06 19:41 44.34382 -87.37243 6959 ft 254 kts 256°
2026-05-06 19:41 44.33935 -87.39634 6585 ft 255 kts 256°
2026-05-06 19:42 44.33483 -87.42053 6255 ft 253 kts 256°
2026-05-06 19:42 44.33044 -87.44395 5958 ft 253 kts 256°
2026-05-06 19:42 44.32574 -87.46904 5735 ft 275 kts 256°
2026-05-06 19:42 44.32083 -87.49519 5475 ft 279 kts 256°
2026-05-06 19:43 44.31760 -87.51235 5293 ft 275 kts 256°
2026-05-06 19:43 44.31282 -87.53769 5012 ft 264 kts 256°
2026-05-06 19:43 44.30825 -87.56190 4732 ft 252 kts 256°
2026-05-06 19:43 44.30249 -87.59242 4367 ft 240 kts 256°
2026-05-06 19:44 44.29964 -87.60745 4176 ft 234 kts 256°
2026-05-06 19:44 44.29419 -87.63627 3822 ft 232 kts 256°
2026-05-06 19:44 44.29005 -87.65807 3577 ft 233 kts 256°
2026-05-06 19:44 44.28724 -87.67290 3405 ft 235 kts 256°
2026-05-06 19:45 44.28304 -87.69504 3141 ft 236 kts 256°
2026-05-06 19:45 44.27886 -87.71705 2971 ft 234 kts 256°
2026-05-06 19:45 44.27467 -87.73902 2919 ft 234 kts 257°
2026-05-06 19:45 44.27050 -87.76089 2919 ft 233 kts 257°
2026-05-06 19:46 44.26636 -87.78269 2911 ft 231 kts 257°
2026-05-06 19:46 44.26226 -87.80413 2898 ft 227 kts 257°
2026-05-06 19:46 44.25819 -87.82539 2902 ft 228 kts 257°
2026-05-06 19:46 44.25412 -87.84670 2907 ft 229 kts 257°
2026-05-06 19:47 44.24996 -87.86846 2905 ft 234 kts 256°
2026-05-06 19:47 44.24580 -87.89012 2922 ft 234 kts 256°
2026-05-06 19:47 44.24154 -87.91218 2906 ft 235 kts 256°
2026-05-06 19:47 44.23732 -87.93409 2905 ft 232 kts 257°
2026-05-06 19:48 44.23317 -87.95571 2897 ft 229 kts 256°
2026-05-06 19:48 44.22902 -87.97708 2912 ft 228 kts 256°
2026-05-06 19:48 44.22493 -87.99839 2909 ft 227 kts 257°
2026-05-06 19:48 44.22085 -88.01966 2913 ft 228 kts 257°
2026-05-06 19:49 44.21671 -88.04104 2903 ft 227 kts 257°
2026-05-06 19:49 44.21264 -88.06195 2909 ft 219 kts 257°
2026-05-06 19:49 44.20884 -88.08151 2895 ft 198 kts 257°
2026-05-06 19:49 44.20542 -88.09915 2876 ft 180 kts 257°
2026-05-06 19:50 44.20218 -88.11589 2893 ft 178 kts 257°
2026-05-06 19:50 44.19895 -88.13256 2904 ft 177 kts 257°
2026-05-06 19:50 44.19578 -88.14885 2900 ft 168 kts 257°
2026-05-06 19:50 44.19283 -88.16403 2901 ft 159 kts 258°
2026-05-06 19:51 44.18995 -88.17889 2888 ft 158 kts 258°
2026-05-06 19:51 44.18710 -88.19361 2901 ft 157 kts 257°
2026-05-06 19:51 44.18422 -88.20838 2903 ft 158 kts 257°
2026-05-06 19:51 44.18131 -88.22326 2910 ft 160 kts 257°
2026-05-06 19:52 44.17838 -88.23826 2924 ft 161 kts 257°
2026-05-06 19:52 44.17544 -88.25327 2907 ft 160 kts 257°
2026-05-06 19:52 44.17266 -88.26819 2911 ft 158 kts 263°
2026-05-06 19:52 44.17484 -88.28277 2808 ft 156 kts 299°
2026-05-06 19:53 44.17971 -88.29578 2724 ft 149 kts 293°
2026-05-06 19:53 44.18395 -88.30869 2712 ft 144 kts 294°
2026-05-06 19:53 44.18805 -88.32075 2703 ft 137 kts 294°
2026-05-06 19:53 44.19214 -88.33262 2695 ft 133 kts 294°
2026-05-06 19:54 44.19609 -88.34397 2705 ft 128 kts 294°
2026-05-06 19:54 44.19998 -88.35512 2708 ft 129 kts 294°
2026-05-06 19:54 44.20390 -88.36634 2708 ft 128 kts 294°
2026-05-06 19:54 44.20773 -88.37730 2693 ft 127 kts 294°
2026-05-06 19:55 44.21159 -88.38836 2702 ft 127 kts 294°
2026-05-06 19:55 44.21554 -88.39962 2629 ft 131 kts 295°
2026-05-06 19:55 44.21953 -88.41104 2490 ft 131 kts 295°
2026-05-06 19:55 44.22347 -88.42229 2300 ft 126 kts 295°
2026-05-06 19:56 44.22732 -88.43328 2123 ft 128 kts 295°
2026-05-06 19:56 44.23122 -88.44442 1955 ft 128 kts 295°
2026-05-06 19:56 44.23509 -88.45544 1766 ft 125 kts 293°
2026-05-06 19:56 44.23894 -88.46646 1583 ft 129 kts 294°
2026-05-06 19:57 44.24296 -88.47791 1385 ft 132 kts 294°
2026-05-06 19:57 44.24703 -88.48950 1202 ft 133 kts 294°
2026-05-06 19:57 44.25103 -88.50093 1026 ft 129 kts 294°
2026-05-06 19:57 44.25490 -88.51194 910 ft 125 kts 292°
2026-05-06 19:58 44.25769 -88.51989 898 ft 65 kts 298°
2026-05-06 19:58 44.25896 -88.52346 902 ft 23 kts 295°
2026-05-06 19:58 44.25960 -88.52460 903 ft 12 kts 349°
2026-05-06 19:58 44.26018 -88.52444 904 ft 4 kts 32°
2026-05-06 19:59 44.26033 -88.52409 902 ft 5 kts 84°
2026-05-06 19:59 44.26024 -88.52365 902 ft 5 kts 112°
2026-05-06 19:59 44.26011 -88.52321 903 ft 6 kts 114°
2026-05-06 19:59 44.25988 -88.52256 903 ft 9 kts 117°
2026-05-06 20:00 44.25957 -88.52173 901 ft 11 kts 117°
2026-05-06 20:00 44.25919 -88.52062 899 ft 13 kts 115°
2026-05-06 20:00 44.25878 -88.51952 900 ft 13 kts 117°
2026-05-06 20:00 44.25842 -88.51840 898 ft 13 kts 115°
2026-05-06 20:01 44.25848 -88.51711 895 ft 15 kts 71°
2026-05-06 20:01 44.25880 -88.51551 888 ft 18 kts 74°
2026-05-06 20:01 44.25893 -88.51482 888 ft 0 kts 75°
2026-05-06 20:02 44.25894 -88.51480 888 ft 3 kts 75°
2026-05-06 20:02 44.25904 -88.51436 888 ft 2 kts 56°
2026-05-06 20:02 44.25915 -88.51425 888 ft 2 kts 22°
2026-05-06 20:02 44.25928 -88.51421 888 ft 2 kts
2026-05-06 20:03 44.25941 -88.51420 888 ft 2 kts
2026-05-06 20:03 44.25953 -88.51420 888 ft 2 kts
2026-05-06 20:03 44.25964 -88.51420 888 ft 1 kts
2026-05-06 20:03 44.25965 -88.51420 888 ft 0 kts